RYR1047 ESGG-LKPR

Flight info

Callsign RYR1047
Flight time 1h 19m
Altitude 37000
Route TOPLA L996 ERNOV DCT SALLO DCT USEDU DCT PADKU DCT GERGA DCT OBANI M725 HDO DCT GOLOP
Aircraft B38M/M-SDE1FGHILORVWXY/HB1

Departure

Time 2026-05-06 18:13
Airport Göteborg Landvetter Airport (ESGG)

Arrival

Time 2026-05-06 19:33
Airport Václav Havel Airport Prague (LKPR)
Time Latitude Longitude Altitude Speed Heading
2026-05-06 17:46 57.66463 12.29060 518 ft 0 kts 116°
2026-05-06 18:01 57.66468 12.29040 518 ft 3 kts 105°
2026-05-06 18:01 57.66469 12.29007 518 ft 3 kts 64°
2026-05-06 18:02 57.66457 12.28983 518 ft 3 kts 28°
2026-05-06 18:02 57.66451 12.28977 518 ft 2 kts 24°
2026-05-06 18:06 57.66452 12.28976 518 ft 0 kts 13°
2026-05-06 18:06 57.66485 12.28975 518 ft 9 kts
2026-05-06 18:07 57.66552 12.28953 518 ft 10 kts
2026-05-06 18:07 57.66603 12.28979 518 ft 2 kts 338°
2026-05-06 18:07 57.66608 12.28963 518 ft 5 kts 301°
2026-05-06 18:07 57.66648 12.28862 518 ft 12 kts 332°
2026-05-06 18:08 57.66729 12.28901 518 ft 13 kts 26°
2026-05-06 18:08 57.66815 12.28978 518 ft 14 kts 26°
2026-05-06 18:08 57.66904 12.29058 518 ft 14 kts 26°
2026-05-06 18:08 57.66995 12.29140 518 ft 15 kts 25°
2026-05-06 18:09 57.67090 12.29229 518 ft 15 kts 27°
2026-05-06 18:09 57.67182 12.29312 518 ft 14 kts 25°
2026-05-06 18:09 57.67275 12.29397 518 ft 16 kts 27°
2026-05-06 18:09 57.67346 12.29463 518 ft 8 kts 26°
2026-05-06 18:10 57.67400 12.29479 518 ft 8 kts 341°
2026-05-06 18:10 57.67432 12.29398 518 ft 8 kts 295°
2026-05-06 18:10 57.67455 12.29306 518 ft 7 kts 291°
2026-05-06 18:10 57.67458 12.29206 517 ft 9 kts 270°
2026-05-06 18:11 57.67446 12.29085 518 ft 8 kts 252°
2026-05-06 18:11 57.67408 12.29001 517 ft 9 kts 203°
2026-05-06 18:11 57.67399 12.28994 517 ft 2 kts 203°
2026-05-06 18:11 57.67393 12.28989 517 ft 2 kts 203°
2026-05-06 18:12 57.67390 12.28987 517 ft 0 kts 203°
2026-05-06 18:12 57.67389 12.28986 517 ft 1 kts 203°
2026-05-06 18:12 57.67306 12.28912 517 ft 44 kts 206°
2026-05-06 18:12 57.66790 12.28440 515 ft 118 kts 206°
2026-05-06 18:13 57.65862 12.27582 517 ft 175 kts 207°
2026-05-06 18:13 57.64705 12.26570 1082 ft 188 kts 210°
2026-05-06 18:13 57.63516 12.25543 1906 ft 195 kts 207°
2026-05-06 18:13 57.62250 12.24411 2599 ft 209 kts 207°
2026-05-06 18:14 57.60857 12.23193 3168 ft 233 kts 207°
2026-05-06 18:14 57.59304 12.22208 4097 ft 238 kts 186°
2026-05-06 18:14 57.57644 12.22291 4431 ft 238 kts 177°
2026-05-06 18:14 57.56001 12.22437 4547 ft 235 kts 178°
2026-05-06 18:15 57.54382 12.22851 4672 ft 235 kts 171°
2026-05-06 18:15 57.52760 12.23378 4818 ft 237 kts 171°
2026-05-06 18:15 57.51131 12.23869 5481 ft 234 kts 172°
2026-05-06 18:15 57.49534 12.24331 6495 ft 237 kts 172°
2026-05-06 18:16 57.47883 12.24795 7389 ft 243 kts 172°
2026-05-06 18:16 57.46149 12.25270 8031 ft 260 kts 172°
2026-05-06 18:16 57.44302 12.25769 8762 ft 271 kts 172°
2026-05-06 18:16 57.42434 12.26272 9781 ft 274 kts 172°
2026-05-06 18:17 57.40510 12.26784 10406 ft 288 kts 173°
2026-05-06 18:17 57.38461 12.27328 10814 ft 308 kts 173°
2026-05-06 18:17 57.36271 12.27908 11267 ft 326 kts 173°
2026-05-06 18:17 57.33977 12.28516 11851 ft 337 kts 173°
2026-05-06 18:18 57.31669 12.29127 12620 ft 342 kts 173°
2026-05-06 18:18 57.29281 12.29758 13349 ft 349 kts 174°
2026-05-06 18:18 57.26863 12.30395 14083 ft 353 kts 174°
2026-05-06 18:18 57.24412 12.31040 14769 ft 357 kts 174°
2026-05-06 18:19 57.21949 12.31688 15469 ft 360 kts 174°
2026-05-06 18:19 57.19457 12.32343 16153 ft 363 kts 175°
2026-05-06 18:19 57.16939 12.33003 16830 ft 366 kts 175°
2026-05-06 18:19 57.14444 12.33657 17482 ft 370 kts 175°
2026-05-06 18:20 57.11879 12.34299 18136 ft 373 kts 176°
2026-05-06 18:20 57.09290 12.34942 18708 ft 376 kts 176°
2026-05-06 18:20 57.06691 12.35588 19287 ft 378 kts 176°
2026-05-06 18:20 57.04080 12.36237 19852 ft 380 kts 176°
2026-05-06 18:21 57.01479 12.36883 20403 ft 382 kts 177°
2026-05-06 18:21 56.98836 12.37539 20968 ft 384 kts 177°
2026-05-06 18:21 56.96178 12.38197 21528 ft 386 kts 177°
2026-05-06 18:21 56.93508 12.38858 22067 ft 388 kts 178°
2026-05-06 18:22 56.90836 12.39518 22603 ft 390 kts 178°
2026-05-06 18:22 56.88133 12.40185 23106 ft 393 kts 178°
2026-05-06 18:22 56.85413 12.40854 23583 ft 396 kts 178°
2026-05-06 18:22 56.82684 12.41526 24009 ft 397 kts 178°
2026-05-06 18:23 56.79934 12.42201 24472 ft 398 kts 178°
2026-05-06 18:23 56.77177 12.42877 24912 ft 400 kts 178°
2026-05-06 18:23 56.74415 12.43553 25324 ft 401 kts 177°
2026-05-06 18:23 56.71672 12.44224 25717 ft 403 kts 177°
2026-05-06 18:24 56.68887 12.44904 26139 ft 404 kts 177°
2026-05-06 18:24 56.66091 12.45585 26550 ft 406 kts 177°
2026-05-06 18:24 56.63285 12.46268 26958 ft 407 kts 177°
2026-05-06 18:24 56.60465 12.46953 27355 ft 409 kts 177°
2026-05-06 18:25 56.57645 12.47637 27680 ft 412 kts 177°
2026-05-06 18:25 56.54786 12.48330 27878 ft 412 kts 177°
2026-05-06 18:25 56.51980 12.49008 27968 ft 412 kts 177°
2026-05-06 18:25 56.49138 12.49695 27946 ft 411 kts 177°
2026-05-06 18:26 56.46308 12.50378 27936 ft 411 kts 177°
2026-05-06 18:26 56.43464 12.51062 27958 ft 412 kts 177°
2026-05-06 18:26 56.40612 12.51745 27962 ft 412 kts 177°
2026-05-06 18:26 56.37761 12.52427 27964 ft 412 kts 177°
2026-05-06 18:27 56.34913 12.53107 27961 ft 412 kts 177°
2026-05-06 18:27 56.32102 12.53778 27964 ft 412 kts 177°
2026-05-06 18:27 56.29247 12.54458 28000 ft 413 kts 177°
2026-05-06 18:27 56.26382 12.55139 28356 ft 414 kts 177°
2026-05-06 18:28 56.23523 12.55818 28733 ft 416 kts 177°
2026-05-06 18:28 56.20646 12.56500 29083 ft 418 kts 177°
2026-05-06 18:28 56.17756 12.57205 29394 ft 421 kts 174°
2026-05-06 18:28 56.14944 12.58739 29745 ft 428 kts 163°
2026-05-06 18:29 56.12152 12.60608 30057 ft 429 kts 164°
2026-05-06 18:29 56.09342 12.62456 30317 ft 431 kts 163°
2026-05-06 18:29 56.06519 12.64332 30569 ft 434 kts 163°
2026-05-06 18:29 56.03685 12.66218 30825 ft 436 kts 163°
2026-05-06 18:30 56.00865 12.68095 31087 ft 437 kts 163°
2026-05-06 18:30 55.98009 12.69993 31346 ft 439 kts 163°
2026-05-06 18:30 55.95142 12.71896 31673 ft 439 kts 163°
2026-05-06 18:30 55.92290 12.73786 32023 ft 438 kts 163°
2026-05-06 18:31 55.89433 12.75677 32352 ft 438 kts 163°
2026-05-06 18:31 55.86573 12.77565 32665 ft 438 kts 163°
2026-05-06 18:31 55.83714 12.79450 33000 ft 438 kts 163°
2026-05-06 18:31 55.80847 12.81337 33331 ft 437 kts 163°
2026-05-06 18:32 55.77985 12.83218 33650 ft 437 kts 163°
2026-05-06 18:32 55.75175 12.85062 33957 ft 437 kts 164°
2026-05-06 18:32 55.72317 12.86936 34211 ft 437 kts 164°
2026-05-06 18:32 55.69478 12.88794 34431 ft 437 kts 164°
2026-05-06 18:33 55.66612 12.90666 34653 ft 438 kts 164°
2026-05-06 18:33 55.63743 12.92538 34866 ft 438 kts 164°
2026-05-06 18:33 55.60877 12.94405 35071 ft 439 kts 163°
2026-05-06 18:33 55.58044 12.96247 35285 ft 439 kts 163°
2026-05-06 18:34 55.55180 12.98105 35510 ft 439 kts 163°
2026-05-06 18:34 55.52309 12.99966 35728 ft 440 kts 163°
2026-05-06 18:34 55.49436 13.01812 35938 ft 439 kts 166°
2026-05-06 18:34 55.46486 13.02937 36167 ft 433 kts 175°
2026-05-06 18:35 55.43511 13.03876 36390 ft 434 kts 172°
2026-05-06 18:35 55.40549 13.04925 36627 ft 434 kts 172°
2026-05-06 18:35 55.37592 13.06003 36870 ft 433 kts 172°
2026-05-06 18:35 55.34628 13.07099 37002 ft 435 kts 172°
2026-05-06 18:36 55.28672 13.09315 36955 ft 438 kts 172°
2026-05-06 18:36 55.22711 13.11530 36964 ft 438 kts 172°
2026-05-06 18:37 55.17759 13.13364 36963 ft 438 kts 172°
2026-05-06 18:37 55.10829 13.15925 36963 ft 438 kts 172°
2026-05-06 18:38 55.04864 13.18122 36942 ft 438 kts 172°
2026-05-06 18:38 54.98894 13.20312 36955 ft 438 kts 172°
2026-05-06 18:39 54.92926 13.22496 36952 ft 438 kts 172°
2026-05-06 18:40 54.83983 13.25757 36950 ft 438 kts 172°
2026-05-06 18:40 54.78053 13.27911 36936 ft 438 kts 172°
2026-05-06 18:41 54.72086 13.30071 36941 ft 437 kts 172°
2026-05-06 18:41 54.67140 13.31857 36948 ft 437 kts 172°
2026-05-06 18:42 54.61175 13.34005 36939 ft 437 kts 172°
2026-05-06 18:42 54.55216 13.36145 36938 ft 437 kts 172°
2026-05-06 18:43 54.49257 13.38278 36925 ft 437 kts 172°
2026-05-06 18:43 54.43299 13.40404 36933 ft 437 kts 172°
2026-05-06 18:44 54.37355 13.42520 36927 ft 437 kts 172°
2026-05-06 18:44 54.31392 13.44635 36916 ft 437 kts 172°
2026-05-06 18:45 54.25465 13.46732 36919 ft 438 kts 172°
2026-05-06 18:45 54.19510 13.48832 36914 ft 437 kts 172°
2026-05-06 18:46 54.13559 13.50925 36912 ft 437 kts 172°
2026-05-06 18:46 54.07592 13.53018 36909 ft 437 kts 172°
2026-05-06 18:47 54.01647 13.55096 36908 ft 437 kts 172°
2026-05-06 18:47 53.95698 13.57170 36904 ft 436 kts 172°
2026-05-06 18:48 53.89749 13.59238 36901 ft 435 kts 172°
2026-05-06 18:48 53.83809 13.61296 36893 ft 436 kts 172°
2026-05-06 18:49 53.77899 13.63338 36894 ft 435 kts 173°
2026-05-06 18:49 53.71962 13.65385 36890 ft 436 kts 173°
2026-05-06 18:50 53.66017 13.67427 36886 ft 435 kts 173°
2026-05-06 18:50 53.60088 13.69459 36885 ft 435 kts 173°
2026-05-06 18:51 53.54164 13.71483 36879 ft 435 kts 173°
2026-05-06 18:51 53.48236 13.73501 36881 ft 435 kts 173°
2026-05-06 18:52 53.42346 13.75503 36867 ft 434 kts 173°
2026-05-06 18:52 53.36418 13.77511 36873 ft 434 kts 173°
2026-05-06 18:53 53.30492 13.79512 36871 ft 434 kts 173°
2026-05-06 18:53 53.24573 13.81506 36871 ft 434 kts 173°
2026-05-06 18:54 53.18644 13.83497 36851 ft 434 kts 173°
2026-05-06 18:54 53.12722 13.85480 36845 ft 433 kts 173°
2026-05-06 18:55 53.06823 13.87449 36843 ft 432 kts 173°
2026-05-06 18:55 53.00972 13.89399 36857 ft 432 kts 173°
2026-05-06 18:56 52.95077 13.91357 36851 ft 432 kts 173°
2026-05-06 18:56 52.89177 13.93311 36841 ft 432 kts 173°
2026-05-06 18:57 52.83269 13.95262 36846 ft 432 kts 173°
2026-05-06 18:57 52.77378 13.97203 36847 ft 432 kts 173°
2026-05-06 18:58 52.71477 13.99141 36838 ft 432 kts 173°
2026-05-06 18:58 52.65573 14.01075 36701 ft 433 kts 173°
2026-05-06 18:58 52.62627 14.02038 36484 ft 431 kts 173°
2026-05-06 18:59 52.59670 14.02868 36302 ft 427 kts 178°
2026-05-06 18:59 52.56724 14.03445 36142 ft 428 kts 177°
2026-05-06 18:59 52.53806 14.04050 35984 ft 428 kts 177°
2026-05-06 18:59 52.50856 14.04678 35806 ft 427 kts 177°
2026-05-06 19:00 52.47917 14.05309 35658 ft 427 kts 177°
2026-05-06 19:00 52.44973 14.05942 35467 ft 426 kts 177°
2026-05-06 19:00 52.42025 14.06575 35314 ft 425 kts 177°
2026-05-06 19:00 52.39101 14.07203 35144 ft 423 kts 177°
2026-05-06 19:01 52.36187 14.07828 34993 ft 422 kts 177°
2026-05-06 19:01 52.33275 14.08451 34853 ft 421 kts 177°
2026-05-06 19:01 52.30374 14.09071 34818 ft 420 kts 177°
2026-05-06 19:02 52.24579 14.10303 34828 ft 422 kts 178°
2026-05-06 19:02 52.18785 14.11501 34821 ft 421 kts 178°
2026-05-06 19:03 52.12965 14.12703 34814 ft 421 kts 177°
2026-05-06 19:03 52.07135 14.13906 34817 ft 421 kts 177°
2026-05-06 19:04 52.01331 14.15099 34818 ft 421 kts 178°
2026-05-06 19:04 51.95545 14.16285 34815 ft 421 kts 177°
2026-05-06 19:05 51.89730 14.17473 34798 ft 421 kts 178°
2026-05-06 19:05 51.83905 14.18658 34806 ft 422 kts 178°
2026-05-06 19:06 51.78079 14.19844 34806 ft 422 kts 178°
2026-05-06 19:06 51.72253 14.21027 34808 ft 422 kts 178°
2026-05-06 19:07 51.66424 14.22208 34802 ft 422 kts 178°
2026-05-06 19:07 51.60605 14.23383 34603 ft 418 kts 178°
2026-05-06 19:07 51.57726 14.23963 34368 ft 415 kts 178°
2026-05-06 19:08 51.54901 14.24532 34148 ft 412 kts 178°
2026-05-06 19:08 51.52085 14.25099 33784 ft 406 kts 178°
2026-05-06 19:08 51.49275 14.25665 32961 ft 409 kts 178°
2026-05-06 19:08 51.46431 14.26238 32012 ft 414 kts 177°
2026-05-06 19:09 51.43548 14.26817 31084 ft 419 kts 177°
2026-05-06 19:09 51.40657 14.27397 30329 ft 420 kts 176°
2026-05-06 19:09 51.37769 14.27975 29737 ft 417 kts 176°
2026-05-06 19:09 51.34895 14.28550 29045 ft 414 kts 176°
2026-05-06 19:10 51.32043 14.29120 28376 ft 412 kts 176°
2026-05-06 19:10 51.29209 14.29686 27712 ft 410 kts 176°
2026-05-06 19:10 51.26393 14.30247 27074 ft 408 kts 176°
2026-05-06 19:10 51.23582 14.30806 26449 ft 406 kts 176°
2026-05-06 19:11 51.20784 14.31363 25824 ft 404 kts 176°
2026-05-06 19:11 51.17992 14.31917 25220 ft 403 kts 176°
2026-05-06 19:11 51.15212 14.32469 24625 ft 401 kts 176°
2026-05-06 19:11 51.12439 14.33018 24042 ft 400 kts 176°
2026-05-06 19:12 51.09681 14.33562 23463 ft 399 kts 175°
2026-05-06 19:12 51.06959 14.34099 22801 ft 398 kts 176°
2026-05-06 19:12 51.04223 14.34638 22142 ft 396 kts 176°
2026-05-06 19:12 51.01495 14.35176 21506 ft 395 kts 175°
2026-05-06 19:13 50.98769 14.35711 20864 ft 394 kts 176°
2026-05-06 19:13 50.96051 14.36246 20230 ft 393 kts 175°
2026-05-06 19:13 50.93340 14.36781 19637 ft 389 kts 175°
2026-05-06 19:13 50.90739 14.37710 19069 ft 377 kts 169°
2026-05-06 19:14 50.88268 14.38676 18941 ft 354 kts 169°
2026-05-06 19:14 50.85936 14.39562 18932 ft 338 kts 170°
2026-05-06 19:14 50.83657 14.40410 18837 ft 335 kts 170°
2026-05-06 19:14 50.81386 14.41247 18778 ft 334 kts 170°
2026-05-06 19:15 50.79132 14.42075 18506 ft 333 kts 170°
2026-05-06 19:15 50.76842 14.42914 17705 ft 336 kts 170°
2026-05-06 19:15 50.74593 14.43736 16966 ft 334 kts 170°
2026-05-06 19:15 50.72330 14.44562 16264 ft 331 kts 170°
2026-05-06 19:16 50.70096 14.45377 15589 ft 329 kts 170°
2026-05-06 19:16 50.67873 14.46187 14926 ft 326 kts 170°
2026-05-06 19:16 50.65665 14.46990 14285 ft 323 kts 171°
2026-05-06 19:16 50.63485 14.47783 13674 ft 321 kts 171°
2026-05-06 19:17 50.61348 14.48560 13077 ft 316 kts 171°
2026-05-06 19:17 50.59233 14.49298 12736 ft 302 kts 175°
2026-05-06 19:17 50.57181 14.49185 12551 ft 296 kts 192°
2026-05-06 19:17 50.55120 14.48739 12420 ft 301 kts 190°
2026-05-06 19:18 50.53100 14.48311 12258 ft 289 kts 191°
2026-05-06 19:18 50.51129 14.47881 12014 ft 283 kts 191°
2026-05-06 19:18 50.49194 14.47452 11729 ft 278 kts 191°
2026-05-06 19:18 50.47305 14.47030 11342 ft 271 kts 191°
2026-05-06 19:19 50.45464 14.46619 10954 ft 264 kts 191°
2026-05-06 19:19 50.43668 14.46215 10587 ft 258 kts 191°
2026-05-06 19:19 50.41895 14.45817 10223 ft 258 kts 191°
2026-05-06 19:19 50.40109 14.45416 9886 ft 259 kts 191°
2026-05-06 19:20 50.38355 14.45023 9782 ft 252 kts 192°
2026-05-06 19:20 50.36727 14.44126 9741 ft 246 kts 215°
2026-05-06 19:20 50.35336 14.42543 9772 ft 248 kts 216°
2026-05-06 19:20 50.33938 14.40962 9752 ft 248 kts 217°
2026-05-06 19:21 50.32545 14.39363 9761 ft 248 kts 217°
2026-05-06 19:21 50.31157 14.37756 9759 ft 248 kts 217°
2026-05-06 19:21 50.29775 14.36145 9759 ft 248 kts 218°
2026-05-06 19:21 50.28395 14.34531 9758 ft 248 kts 218°
2026-05-06 19:22 50.27046 14.32949 9778 ft 233 kts 218°
2026-05-06 19:22 50.25806 14.31496 9779 ft 219 kts 218°
2026-05-06 19:22 50.24608 14.30092 9753 ft 214 kts 218°
2026-05-06 19:22 50.23416 14.28695 9633 ft 213 kts 218°
2026-05-06 19:23 50.22407 14.27037 9406 ft 211 kts 241°
2026-05-06 19:23 50.22069 14.24829 9148 ft 215 kts 271°
2026-05-06 19:23 50.22583 14.22621 8924 ft 222 kts 300°
2026-05-06 19:23 50.23536 14.20700 8839 ft 225 kts 304°
2026-05-06 19:24 50.24538 14.18801 8778 ft 226 kts 305°
2026-05-06 19:24 50.25539 14.16903 8753 ft 226 kts 305°
2026-05-06 19:24 50.26203 14.15646 8750 ft 226 kts 305°
2026-05-06 19:24 50.27534 14.13130 8670 ft 227 kts 305°
2026-05-06 19:25 50.28540 14.11229 8459 ft 226 kts 305°
2026-05-06 19:25 50.29534 14.09340 8204 ft 225 kts 305°
2026-05-06 19:25 50.30521 14.07448 7927 ft 224 kts 305°
2026-05-06 19:25 50.31164 14.06182 7725 ft 223 kts 301°
2026-05-06 19:26 50.31666 14.03965 7393 ft 214 kts 268°
2026-05-06 19:26 50.31355 14.01736 7105 ft 210 kts 245°
2026-05-06 19:26 50.30599 13.99798 6828 ft 208 kts 232°
2026-05-06 19:26 50.29678 13.98099 6505 ft 204 kts 221°
2026-05-06 19:27 50.28562 13.96788 6179 ft 197 kts 214°
2026-05-06 19:27 50.27350 13.95881 5758 ft 195 kts 189°
2026-05-06 19:27 50.26032 13.96224 5333 ft 196 kts 155°
2026-05-06 19:27 50.24866 13.97297 4955 ft 194 kts 147°
2026-05-06 19:28 50.23809 13.98622 4588 ft 197 kts 140°
2026-05-06 19:28 50.22853 14.00102 4281 ft 197 kts 134°
2026-05-06 19:28 50.21925 14.01737 4002 ft 196 kts 130°
2026-05-06 19:28 50.21077 14.03361 3847 ft 189 kts 129°
2026-05-06 19:29 50.20291 14.04940 3796 ft 180 kts 128°
2026-05-06 19:29 50.19541 14.06476 3821 ft 176 kts 127°
2026-05-06 19:29 50.18798 14.08004 3727 ft 178 kts 127°
2026-05-06 19:29 50.18066 14.09517 3518 ft 176 kts 127°
2026-05-06 19:30 50.17332 14.11036 3303 ft 174 kts 126°
2026-05-06 19:30 50.16605 14.12539 3095 ft 173 kts 126°
2026-05-06 19:30 50.15881 14.14038 2869 ft 173 kts 125°
2026-05-06 19:30 50.15161 14.15528 2655 ft 171 kts 126°
2026-05-06 19:31 50.14452 14.16993 2434 ft 167 kts 124°
2026-05-06 19:31 50.13776 14.18391 2254 ft 157 kts 125°
2026-05-06 19:31 50.12481 14.21071 1781 ft 154 kts 124°
2026-05-06 19:32 50.11832 14.22420 1465 ft 155 kts 125°
2026-05-06 19:32 50.11184 14.23712 1306 ft 152 kts 125°
2026-05-06 19:32 50.10566 14.25021 1173 ft 145 kts 124°
2026-05-06 19:32 50.10097 14.25994 1195 ft 79 kts 127°
2026-05-06 19:33 50.09880 14.26452 1211 ft 27 kts 121°
2026-05-06 19:33 50.09879 14.26663 1215 ft 20 kts 82°
2026-05-06 19:33 50.09899 14.26878 1212 ft 7 kts 82°
2026-05-06 19:33 50.09907 14.26969 1211 ft 10 kts 82°
2026-05-06 19:34 50.09917 14.27073 1210 ft 9 kts 82°
2026-05-06 19:34 50.09920 14.27107 1209 ft 2 kts 77°
2026-05-06 19:34 50.09941 14.27121 1209 ft 6 kts 346°
2026-05-06 19:34 50.09991 14.27032 1207 ft 16 kts 307°
2026-05-06 19:35 50.10070 14.26871 1204 ft 21 kts 307°
2026-05-06 19:35 50.10157 14.26690 1199 ft 22 kts 306°
2026-05-06 19:35 50.10236 14.26524 1197 ft 18 kts 306°
2026-05-06 19:35 50.10310 14.26370 1194 ft 18 kts 307°
2026-05-06 19:36 50.10382 14.26222 1191 ft 16 kts 307°
2026-05-06 19:36 50.10438 14.26109 1189 ft 14 kts 307°
2026-05-06 19:36 50.10488 14.26007 1187 ft 12 kts 308°
2026-05-06 19:36 50.10540 14.25885 1185 ft 15 kts 302°
2026-05-06 19:37 50.10582 14.25801 1185 ft 6 kts 333°
2026-05-06 19:37 50.10628 14.25819 1182 ft 10 kts 28°
2026-05-06 19:37 50.10715 14.25907 1179 ft 18 kts 34°
2026-05-06 19:37 50.10809 14.26006 1176 ft 14 kts 34°
2026-05-06 19:38 50.10885 14.26087 1177 ft 14 kts 34°
2026-05-06 19:38 50.10929 14.26134 1174 ft 4 kts 34°
2026-05-06 19:38 50.10941 14.26156 1175 ft 0 kts 79°
2026-05-06 19:38 50.10937 14.26187 1176 ft 7 kts 111°
2026-05-06 19:39 50.10917 14.26237 1178 ft 2 kts 124°
2026-05-06 19:39 50.10913 14.26246 1178 ft 0 kts 123°